When you browse on this site, cookies collect data to enhance your experience and personalize the content and advertising you see.
Visit our Privacy Policy to learn more. By continuing to use the site, you agree to this use of cookies and data.
  • In United Kingdom
  • List of Countries
  • For 7 days
  • Water Temperature
  • Satellite Maps
  • Weather Map
  • Weather Widgets
  • user-avatar
    Login

    Hourly Weather Pardesiyya

    Today, 21 March, Thursday

    Time Temperature Precipitation Wind Pressure Humidity
    00:00 +15°C° 0 mm 2 mps 755 mmHg 77%
    01:00 +15°C° 0 mm 2 mps 755 mmHg 78%
    02:00 +15°C° 0 mm 2 mps 755 mmHg 79%
    03:00 +14°C° 0 mm 2 mps 755 mmHg 80%
    04:00 +14°C° 0 mm 2 mps 755 mmHg 81%
    05:00 +14°C° 0 mm 2 mps 755 mmHg 82%
    06:00 +15°C° 0 mm 2 mps 755 mmHg 75%
    07:00 +18°C° 0 mm 1 mps 756 mmHg 69%
    08:00 +19°C° 0 mm 1 mps 756 mmHg 64%
    09:00 +20°C° 0 mm 1 mps 756 mmHg 59%
    10:00 +21°C° 0 mm 1 mps 756 mmHg 54%
    11:00 +22°C° 0 mm 1 mps 756 mmHg 49%
    12:00 +23°C° 0 mm 2 mps 756 mmHg 50%
    13:00 +22°C° 0 mm 3 mps 756 mmHg 50%
    14:00 +22°C° 0 mm 4 mps 755 mmHg 53%
    15:00 +21°C° 0 mm 4 mps 755 mmHg 57%
    16:00 +20°C° 0 mm 4 mps 755 mmHg 62%
    17:00 +20°C° 0 mm 4 mps 755 mmHg 66%
    18:00 +18°C° 0 mm 4 mps 755 mmHg 72%
    19:00 +17°C° 0 mm 3 mps 756 mmHg 78%
    20:00 +16°C° 0 mm 2 mps 756 mmHg 84%
    21:00 +16°C° 0 mm 2 mps 756 mmHg 85%
    22:00 +16°C° 0 mm 1 mps 756 mmHg 87%
    23:00 +15°C° 0 mm 1 mps 756 mmHg 88%

    Tomorrow, 22 March, Friday

    Time Temperature Precipitation Wind Pressure Humidity
    00:00 +15°C° 0 mm 1 mps 756 mmHg 88%
    01:00 +15°C° 0 mm 1 mps 756 mmHg 89%
    02:00 +13°C° 0 mm 0 mps 756 mmHg 90%
    03:00 +13°C° 0 mm 0 mps 756 mmHg 90%
    04:00 +14°C° 0 mm 1 mps 756 mmHg 91%
    05:00 +14°C° 0 mm 1 mps 757 mmHg 91%
    06:00 +15°C° 0 mm 1 mps 757 mmHg 86%
    07:00 +16°C° 0 mm 1 mps 757 mmHg 81%
    08:00 +17°C° 0 mm 2 mps 758 mmHg 76%
    09:00 +18°C° 0 mm 2 mps 757 mmHg 71%
    10:00 +20°C° 0 mm 2 mps 757 mmHg 65%
    11:00 +21°C° 0 mm 3 mps 757 mmHg 59%
    12:00 +21°C° 0 mm 3 mps 757 mmHg 59%
    13:00 +21°C° 0 mm 4 mps 756 mmHg 60%
    14:00 +21°C° 0 mm 4 mps 756 mmHg 60%
    15:00 +21°C° 0 mm 4 mps 756 mmHg 63%
    16:00 +20°C° 0 mm 4 mps 756 mmHg 66%
    17:00 +19°C° 0 mm 3 mps 755 mmHg 69%
    18:00 +18°C° 0 mm 2 mps 756 mmHg 74%
    19:00 +18°C° 0 mm 1 mps 756 mmHg 78%
    20:00 +15°C° 0 mm 0 mps 756 mmHg 83%
    21:00 +15°C° 0 mm 0 mps 756 mmHg 83%
    22:00 +14°C° 0 mm 0 mps 756 mmHg 83%
    23:00 +14°C° 0 mm 0 mps 756 mmHg 82%

    Day after tomorrow, 23 March, Saturday

    Time Temperature Precipitation Wind Pressure Humidity
    00:00 +14°C° 0 mm 0 mps 756 mmHg 82%
    01:00 +15°C° 0 mm 1 mps 755 mmHg 82%
    02:00 +15°C° 0 mm 1 mps 755 mmHg 82%
    03:00 +14°C° 0 mm 1 mps 755 mmHg 82%
    04:00 +13°C° 0 mm 0 mps 755 mmHg 82%
    05:00 +13°C° 0 mm 0 mps 755 mmHg 82%
    06:00 +14°C° 0 mm 0 mps 755 mmHg 77%
    07:00 +15°C° 0 mm 0 mps 755 mmHg 73%
    08:00 +17°C° 0 mm 0 mps 755 mmHg 68%
    09:00 +20°C° 0 mm 1 mps 755 mmHg 62%
    10:00 +21°C° 0 mm 1 mps 755 mmHg 57%
    11:00 +22°C° 0 mm 1 mps 755 mmHg 52%
    12:00 +21°C° 0 mm 2 mps 754 mmHg 52%
    13:00 +21°C° 0 mm 3 mps 754 mmHg 53%
    14:00 +22°C° 0 mm 4 mps 753 mmHg 53%
    15:00 +21°C° 0 mm 4 mps 753 mmHg 56%
    16:00 +20°C° 0 mm 4 mps 753 mmHg 60%
    17:00 +19°C° 0 mm 3 mps 753 mmHg 63%
    18:00 +18°C° 0 mm 2 mps 753 mmHg 67%
    19:00 +18°C° 0 mm 1 mps 753 mmHg 70%
    20:00 +15°C° 0 mm 0 mps 753 mmHg 73%
    21:00 +16°C° 0 mm 1 mps 753 mmHg 72%
    22:00 +16°C° 0 mm 1 mps 753 mmHg 71%
    23:00 +15°C° 0 mm 1 mps 752 mmHg 70%

    24 March, Sunday

    Time Temperature Precipitation Wind Pressure Humidity
    00:00 +15°C° 0 mm 1 mps 752 mmHg 70%
    01:00 +14°C° 0 mm 0 mps 751 mmHg 70%
    02:00 +13°C° 0 mm 0 mps 751 mmHg 71%
    03:00 +13°C° 0 mm 0 mps 751 mmHg 72%
    04:00 +13°C° 0 mm 0 mps 751 mmHg 73%
    05:00 +12°C° 0 mm 0 mps 750 mmHg 74%
    06:00 +15°C° 0 mm 1 mps 750 mmHg 67%
    07:00 +16°C° 0 mm 1 mps 751 mmHg 61%
    08:00 +19°C° 0 mm 1 mps 751 mmHg 54%
    09:00 +19°C° 0 mm 2 mps 750 mmHg 51%
    10:00 +20°C° 0 mm 3 mps 750 mmHg 48%
    11:00 +21°C° 0 mm 4 mps 750 mmHg 46%
    12:00 +20°C° 0 mm 4 mps 750 mmHg 48%
    13:00 +20°C° 0 mm 4 mps 749 mmHg 50%
    14:00 +20°C° 0 mm 5 mps 749 mmHg 52%
    15:00 +19°C° 0 mm 4 mps 748 mmHg 56%
    16:00 +19°C° 0 mm 4 mps 748 mmHg 60%
    17:00 +18°C° 0 mm 4 mps 748 mmHg 63%
    18:00 +17°C° 0.2 mm 3 mps 748 mmHg 68%
    19:00 +16°C° 0.2 mm 2 mps 749 mmHg 73%
    20:00 +15°C° 0.2 mm 2 mps 749 mmHg 78%
    21:00 +15°C° 0.4 mm 2 mps 749 mmHg 78%
    22:00 +15°C° 0.4 mm 2 mps 748 mmHg 79%
    23:00 +14°C° 0.4 mm 2 mps 748 mmHg 80%

    25 March, Monday

    Time Temperature Precipitation Wind Pressure Humidity
    00:00 +14°C° 0.3 mm 2 mps 748 mmHg 78%
    01:00 +14°C° 0.3 mm 2 mps 748 mmHg 76%
    02:00 +13°C° 0.3 mm 3 mps 748 mmHg 75%
    03:00 +12°C° 0 mm 3 mps 748 mmHg 72%
    04:00 +12°C° 0 mm 4 mps 748 mmHg 68%
    05:00 +12°C° 0 mm 4 mps 748 mmHg 65%
    06:00 +12°C° 0.1 mm 5 mps 748 mmHg 61%
    07:00 +13°C° 0.1 mm 6 mps 749 mmHg 57%
    08:00 +14°C° 0.1 mm 7 mps 749 mmHg 53%
    09:00 +13°C° 0.2 mm 8 mps 749 mmHg 53%
    10:00 +13°C° 0.2 mm 9 mps 749 mmHg 54%
    11:00 +13°C° 0.2 mm 10 mps 750 mmHg 54%
    12:00 +13°C° 0.4 mm 10 mps 750 mmHg 55%
    13:00 +13°C° 0.4 mm 9 mps 750 mmHg 56%
    14:00 +13°C° 0.4 mm 9 mps 750 mmHg 57%
    15:00 +13°C° 0.1 mm 9 mps 750 mmHg 58%
    16:00 +13°C° 0.1 mm 8 mps 751 mmHg 58%
    17:00 +12°C° 0.1 mm 8 mps 751 mmHg 59%
    18:00 +12°C° 0 mm 7 mps 752 mmHg 59%
    19:00 +11°C° 0 mm 6 mps 752 mmHg 59%
    20:00 +12°C° 0 mm 5 mps 753 mmHg 59%
    21:00 +12°C° 0 mm 4 mps 753 mmHg 59%
    22:00 +12°C° 0 mm 4 mps 753 mmHg 59%
    23:00 +11°C° 0 mm 4 mps 753 mmHg 60%

    26 March, Tuesday

    Time Temperature Precipitation Wind Pressure Humidity
    00:00 +11°C° 0 mm 4 mps 754 mmHg 60%
    01:00 +11°C° 0 mm 4 mps 754 mmHg 60%
    02:00 +11°C° 0 mm 3 mps 754 mmHg 59%
    03:00 +11°C° 0 mm 3 mps 754 mmHg 60%
    04:00 +11°C° 0 mm 3 mps 754 mmHg 61%
    05:00 +11°C° 0 mm 3 mps 754 mmHg 62%
    06:00 +12°C° 0 mm 3 mps 755 mmHg 60%
    07:00 +13°C° 0 mm 3 mps 755 mmHg 58%
    08:00 +14°C° 0 mm 4 mps 755 mmHg 56%
    09:00 +15°C° 0 mm 4 mps 755 mmHg 54%
    10:00 +17°C° 0 mm 4 mps 755 mmHg 52%
    11:00 +18°C° 0 mm 4 mps 755 mmHg 50%
    12:00 +18°C° 0 mm 4 mps 755 mmHg 50%
    13:00 +17°C° 0 mm 5 mps 755 mmHg 50%
    14:00 +17°C° 0 mm 5 mps 754 mmHg 51%
    15:00 +17°C° 0 mm 5 mps 755 mmHg 53%
    16:00 +17°C° 0 mm 4 mps 755 mmHg 55%
    17:00 +15°C° 0 mm 4 mps 755 mmHg 57%
    18:00 +16°C° 0 mm 3 mps 755 mmHg 60%
    19:00 +15°C° 0 mm 2 mps 755 mmHg 64%
    20:00 +14°C° 0 mm 2 mps 756 mmHg 67%
    21:00 +13°C° 0 mm 2 mps 756 mmHg 67%
    22:00 +13°C° 0 mm 2 mps 756 mmHg 68%
    23:00 +12°C° 0 mm 3 mps 756 mmHg 69%
    Show more